Group_ship,Cruise,JD_GMT,Date_DDMMYYYY,TIME_HH:MM:SS,Lat_dec_degree,Long_dec_degree,xCO2eq_ppm,xCO2a_ppm,Pres_Equi_hPa,Pres_sealevel_hPa,EqTemp_C,SST(TSG)_C,Sal(TSG)_Permil,Water_flow_l/min,Gasflow_IR_ml/min,Temp_IR_C,Pres_IR_hPa,Ship_heading_true_degree,Ship_speed_knot,Wind_dir_rel_degree,Wind_speed_rel_m/s,fCO2W@SST_uatm,Qcflag_water,fCO2a_uatm,Qcflag_air,dfCO2_uatm,Fluoro_ug/l,Wind_speed_true_m/s,Wind_dir_true_degree,Air_temp_C,Oxygen
AOML_Explorer,Ex0735N,239.022,27082007,0:31:52,40.031,-73.347,390.08,-9.00,1015.35,1012.60,20.77,20.40,31.894,1.141,100.477,32.689,1015.353,132.000,18.900,314.000,9.265,374.69,2,-9.00,9,-9.00,0.13,7.72,15.19,23.42,260.52
AOML_Explorer,Ex0735N,239.024,27082007,0:34:25,40.022,-73.334,392.76,-9.00,1015.34,1012.50,20.74,20.52,31.871,1.185,100.537,32.679,1015.339,130.600,19.000,311.000,9.265,379.57,2,-9.00,9,-9.00,0.12,8.15,12.35,23.37,260.69
AOML_Explorer,Ex0735N,239.026,27082007,0:36:58,40.013,-73.321,394.97,-9.00,1015.36,1012.60,20.74,20.55,31.878,1.143,100.693,32.672,1015.357,134.500,18.900,312.000,9.265,382.18,2,-9.00,9,-9.00,0.13,7.93,16.96,23.27,261.01
AOML_Explorer,Ex0735N,239.027,27082007,0:39:31,40.004,-73.308,396.88,-9.00,1015.41,1012.70,20.79,20.63,31.869,1.197,100.842,32.661,1015.409,133.600,18.800,310.000,8.750,384.43,2,-9.00,9,-9.00,0.13,8.10,12.04,23.23,261.30
AOML_Explorer,Ex0735N,239.029,27082007,0:42:04,39.995,-73.296,398.61,-9.00,1015.46,1012.70,20.83,20.60,31.890,1.210,100.624,32.654,1015.464,133.100,18.900,312.000,8.750,385.15,2,-9.00,9,-9.00,0.14,7.73,12.43,23.16,261.43
AOML_Explorer,Ex0735N,239.031,27082007,0:44:37,39.985,-73.283,399.80,-9.00,1015.47,1012.70,20.88,20.63,31.865,1.144,100.727,32.646,1015.467,134.500,18.900,309.000,8.750,385.73,2,-9.00,9,-9.00,0.14,8.16,12.31,23.24,261.72
AOML_Explorer,Ex0735N,239.033,27082007,0:47:10,39.976,-73.271,400.88,-9.00,1015.61,1012.80,20.89,20.62,31.819,1.159,100.824,32.637,1015.605,133.900,19.000,308.000,8.750,386.52,2,-9.00,9,-9.00,0.15,8.33,11.50,23.28,261.44
AOML_Explorer,Ex0735N,239.035,27082007,0:49:43,39.966,-73.258,401.16,-9.00,1015.52,1012.80,20.89,20.67,31.822,1.202,100.884,32.631,1015.521,134.600,19.100,310.000,9.265,387.73,2,-9.00,9,-9.00,0.15,8.22,16.05,23.29,261.53
AOML_Explorer,Ex0735N,239.036,27082007,0:52:16,39.957,-73.246,400.87,-9.00,1015.58,1012.90,20.90,20.65,31.802,1.181,100.415,32.624,1015.581,135.000,19.000,311.000,8.235,386.91,2,-9.00,9,-9.00,0.16,7.74,9.88,23.08,261.54
AOML_Explorer,Ex0735N,239.038,27082007,0:54:49,39.947,-73.234,400.05,-9.00,1015.55,1012.90,20.94,20.62,31.802,1.224,100.782,32.616,1015.550,135.000,19.100,313.000,8.235,385.02,2,-9.00,9,-9.00,0.16,7.47,10.05,22.9,261.55
AOML_Explorer,Ex0735N,239.040,27082007,0:57:22,39.938,-73.221,399.11,-9.00,1015.54,1012.90,20.93,20.64,31.783,1.166,101.017,32.605,1015.537,135.000,19.100,315.000,7.206,384.57,2,-9.00,9,-9.00,0.16,7.10,2.31,22.87,261.14
AOML_Explorer,Ex0735N,239.042,27082007,0:59:55,39.928,-73.209,398.01,-9.00,1015.55,1013.00,20.90,20.58,31.790,1.154,100.917,32.597,1015.545,135.100,19.200,318.000,6.691,382.93,2,-9.00,9,-9.00,0.17,6.75,357.92,22.9,261.27
AOML_Explorer,Ex0735N,239.066,27082007,1:34:25,39.798,-73.042,396.91,-9.00,1015.90,1013.50,21.62,21.81,32.001,1.225,100.847,32.544,1015.902,135.100,19.200,344.000,7.721,389.75,2,-9.00,9,-9.00,0.11,3.30,358.18,22.75,258.15
AOML_Explorer,Ex0735N,239.067,27082007,1:36:58,39.789,-73.030,396.13,-9.00,1015.92,1013.60,21.80,21.76,32.038,1.247,101.151,32.534,1015.917,134.600,19.200,343.000,8.235,385.22,2,-9.00,9,-9.00,0.11,3.18,6.64,22.76,258.21
AOML_Explorer,Ex0735N,239.069,27082007,1:39:31,39.779,-73.017,395.71,-9.00,1015.90,1013.60,21.87,21.64,32.012,1.214,101.100,32.520,1015.899,134.800,19.200,339.000,7.721,381.81,2,-9.00,9,-9.00,0.11,3.89,2.13,22.77,258.10
AOML_Explorer,Ex0735N,239.071,27082007,1:42:04,39.770,-73.005,395.72,-9.00,1015.96,1013.60,21.83,21.75,32.044,1.250,101.094,32.510,1015.959,134.600,19.200,338.000,7.721,384.23,2,-9.00,9,-9.00,0.11,4.01,2.58,22.79,257.49
AOML_Explorer,Ex0735N,239.073,27082007,1:44:37,39.760,-72.992,395.42,-9.00,1015.96,1013.60,21.82,21.89,32.031,1.182,100.915,32.500,1015.964,134.500,19.300,344.000,8.235,386.27,2,-9.00,9,-9.00,0.11,3.06,4.91,22.74,256.69
AOML_Explorer,Ex0735N,239.074,27082007,1:47:10,39.751,-72.980,394.56,-9.00,1015.92,1013.60,21.86,21.77,32.054,1.263,100.734,32.489,1015.917,134.700,19.300,348.000,8.235,382.90,2,-9.00,9,-9.00,0.11,2.55,359.72,22.75,256.95
AOML_Explorer,Ex0735N,239.076,27082007,1:49:43,39.741,-72.967,393.62,-9.00,1015.96,1013.60,21.96,21.77,31.998,1.214,101.091,32.479,1015.960,134.400,19.300,346.000,8.750,380.25,2,-9.00,9,-9.00,0.11,2.61,11.98,22.82,257.04
AOML_Explorer,Ex0735N,239.078,27082007,1:52:16,39.732,-72.955,393.28,-9.00,1016.01,1013.70,21.92,21.78,31.954,1.201,100.936,32.469,1016.009,134.600,19.400,347.000,9.265,380.91,2,-9.00,9,-9.00,0.11,2.39,22.92,22.81,257.32
AOML_Explorer,Ex0735N,239.080,27082007,1:54:49,39.722,-72.942,393.12,-9.00,1016.07,1013.80,21.93,21.82,31.931,1.199,100.907,32.460,1016.074,134.900,19.300,348.000,9.265,381.15,2,-9.00,9,-9.00,0.11,2.24,22.83,22.78,257.91
AOML_Explorer,Ex0735N,239.082,27082007,1:57:22,39.712,-72.930,394.20,-9.00,1016.11,1013.90,21.95,21.78,31.906,1.250,100.643,32.451,1016.110,134.400,19.400,349.000,10.294,381.35,2,-9.00,9,-9.00,0.12,2.11,49.55,22.69,257.94
AOML_Explorer,Ex0735N,239.083,27082007,1:59:55,39.703,-72.917,395.93,-9.00,1016.06,1013.90,21.93,21.68,31.908,1.192,101.152,32.441,1016.061,134.700,19.400,351.000,9.779,381.67,2,-9.00,9,-9.00,0.12,1.69,35.08,22.67,258.26
AOML_Explorer,Ex0735N,239.100,27082007,2:24:13,39.611,-72.797,398.70,-9.00,1016.16,1013.90,21.78,21.15,31.849,1.152,101.084,32.420,1016.155,135.100,19.400,352.000,10.294,378.53,2,-9.00,9,-9.00,0.13,1.68,53.83,22.79,261.32
AOML_Explorer,Ex0735N,239.102,27082007,2:26:46,39.601,-72.785,399.72,-9.00,1016.17,1014.00,21.53,21.18,31.857,1.172,101.162,32.412,1016.172,135.700,19.300,356.000,10.294,384.07,2,-9.00,9,-9.00,0.12,1.07,64.34,22.83,261.37
AOML_Explorer,Ex0735N,239.104,27082007,2:29:19,39.591,-72.773,399.82,-9.00,1016.20,1014.00,21.43,21.44,31.830,1.115,101.282,32.401,1016.198,135.200,19.300,354.000,10.294,390.00,2,-9.00,9,-9.00,0.12,1.40,58.06,22.86,260.17
AOML_Explorer,Ex0735N,239.105,27082007,2:31:52,39.582,-72.760,399.82,-9.00,1016.23,1013.90,21.44,21.76,32.035,1.137,101.225,32.392,1016.234,134.500,19.200,353.000,9.779,394.93,2,-9.00,9,-9.00,0.11,1.50,37.61,22.94,258.23
AOML_Explorer,Ex0735N,239.107,27082007,2:34:25,39.572,-72.748,399.81,-9.00,1016.19,1013.90,21.64,21.95,32.105,1.179,100.940,32.380,1016.189,134.200,19.300,353.000,9.779,394.53,2,-9.00,9,-9.00,0.12,1.43,36.72,22.99,256.85
AOML_Explorer,Ex0735N,239.109,27082007,2:36:58,39.563,-72.735,399.94,-9.00,1016.18,1014.00,21.97,21.97,32.015,1.196,101.197,32.374,1016.185,134.200,19.400,357.000,10.294,389.61,2,-9.00,9,-9.00,0.11,0.85,68.05,22.99,256.78
AOML_Explorer,Ex0735N,239.111,27082007,2:39:31,39.553,-72.722,399.69,-9.00,1016.19,1014.00,22.10,22.26,32.083,1.200,101.060,32.360,1016.195,134.100,19.300,3.000,9.779,391.89,2,-9.00,9,-9.00,0.10,0.36,251.62,22.93,255.41
AOML_Explorer,Ex0735N,239.113,27082007,2:42:04,39.543,-72.710,399.55,-9.00,1016.15,1013.90,22.11,22.60,32.193,1.168,101.099,32.352,1016.150,134.100,19.400,0.000,10.294,396.99,2,-9.00,9,-9.00,0.09,0.42,100.38,22.88,253.23
AOML_Explorer,Ex0735N,239.114,27082007,2:44:37,39.534,-72.697,398.93,-9.00,1016.20,1013.90,22.31,23.01,32.359,1.143,101.210,32.342,1016.199,134.300,19.400,6.000,9.779,399.63,2,-9.00,9,-9.00,0.08,0.79,237.18,22.88,251.59
AOML_Explorer,Ex0735N,239.116,27082007,2:47:10,39.524,-72.685,397.74,-9.00,1016.14,1014.00,22.64,23.13,32.466,1.196,101.259,32.338,1016.141,134.500,19.200,0.000,9.779,394.72,2,-9.00,9,-9.00,0.06,0.30,28.71,22.91,250.17
AOML_Explorer,Ex0735N,239.118,27082007,2:49:43,39.515,-72.672,396.89,-9.00,1016.19,1014.00,22.91,23.19,32.506,1.169,100.788,32.330,1016.193,134.400,19.200,4.000,9.779,390.47,2,-9.00,9,-9.00,0.06,0.39,234.93,22.89,248.16
AOML_Explorer,Ex0735N,239.120,27082007,2:52:16,39.511,-72.668,396.31,-9.00,1016.25,1013.90,23.09,22.95,32.507,1.172,101.204,32.319,1016.249,0.000,0.000,357.000,9.265,383.24,2,-9.00,9,-9.00,0.06,1.01,8.08,22.92,248.75
AOML_Explorer,Ex0735N,239.121,27082007,2:54:49,39.496,-72.647,396.68,-9.00,1016.20,1013.90,23.15,22.85,32.521,1.127,101.084,32.313,1016.200,133.800,19.300,359.000,9.779,380.99,2,-9.00,9,-9.00,0.06,0.42,27.23,22.88,249.07
AOML_Explorer,Ex0735N,239.123,27082007,2:57:22,39.486,-72.635,398.00,-9.00,1016.14,1013.80,23.06,22.27,32.633,1.111,101.031,32.305,1016.144,134.500,19.400,358.000,9.265,374.69,2,-9.00,9,-9.00,0.06,0.97,354.27,22.9,249.60
AOML_Explorer,Ex0735N,239.125,27082007,2:59:55,39.476,-72.622,399.51,-9.00,1016.15,1013.90,22.91,22.03,32.623,1.130,101.057,32.299,1016.149,134.600,19.600,356.000,9.779,374.94,2,-9.00,9,-9.00,0.07,1.10,28.46,22.97,249.71
AOML_Explorer,Ex0735N,239.142,27082007,3:24:13,39.383,-72.503,399.77,-9.00,1016.00,1013.50,22.53,22.69,32.936,1.160,101.062,32.294,1015.998,132.700,19.100,343.000,8.750,391.52,2,-9.00,9,-9.00,0.06,3.48,15.58,22.95,250.22
AOML_Explorer,Ex0735N,239.144,27082007,3:26:46,39.374,-72.490,401.02,-9.00,1015.99,1013.50,22.68,23.24,33.196,1.142,101.071,32.284,1015.990,133.000,19.100,346.000,9.265,399.23,2,-9.00,9,-9.00,0.05,2.84,24.30,22.88,247.92
AOML_Explorer,Ex0735N,239.147,27082007,3:31:52,39.356,-72.465,400.57,-9.00,1015.98,1013.50,23.18,23.90,34.179,1.141,101.496,32.272,1015.977,131.500,18.900,336.000,9.265,400.85,2,-9.00,9,-9.00,0.05,4.15,23.18,23,244.61
AOML_Explorer,Ex0735N,239.149,27082007,3:34:25,39.347,-72.452,397.13,-9.00,1016.12,1013.50,23.69,23.63,34.300,1.155,100.794,32.261,1016.116,133.800,19.100,335.000,9.265,384.85,2,-9.00,9,-9.00,0.05,4.28,24.33,23.09,245.32
AOML_Explorer,Ex0735N,239.151,27082007,3:36:58,39.338,-72.439,394.39,-9.00,1016.06,1013.60,23.78,23.50,34.289,1.157,100.970,32.254,1016.055,132.400,19.000,338.000,9.265,378.74,2,-9.00,9,-9.00,0.05,3.74,23.45,23.15,245.17
AOML_Explorer,Ex0735N,239.152,27082007,3:39:31,39.329,-72.427,391.84,-9.00,1016.09,1013.60,23.61,23.45,34.297,1.154,101.061,32.248,1016.088,133.700,19.000,336.000,9.265,378.14,2,-9.00,9,-9.00,0.05,3.96,24.62,23.18,245.46
AOML_Explorer,Ex0735N,239.154,27082007,3:42:04,39.319,-72.414,389.26,-9.00,1016.13,1013.50,23.55,23.61,34.115,1.172,100.823,32.240,1016.135,134.100,18.900,337.000,8.750,379.13,2,-9.00,9,-9.00,0.05,3.77,18.19,23.18,245.35
AOML_Explorer,Ex0735N,239.156,27082007,3:44:37,39.310,-72.402,387.14,-9.00,1016.06,1013.50,23.52,23.54,34.367,1.159,100.920,32.233,1016.060,134.300,19.000,334.000,8.235,376.53,2,-9.00,9,-9.00,0.05,4.38,10.97,23.18,244.37
AOML_Explorer,Ex0735N,239.158,27082007,3:47:10,39.301,-72.390,386.35,-9.00,1016.07,1013.50,23.55,23.70,34.237,1.162,101.061,32.226,1016.073,133.200,19.000,337.000,8.750,377.63,2,-9.00,9,-9.00,0.05,3.74,17.00,23.19,244.46
AOML_Explorer,Ex0735N,239.160,27082007,3:49:43,39.291,-72.377,384.71,-9.00,1016.09,1013.60,23.58,23.98,34.359,1.165,101.131,32.218,1016.087,134.200,19.000,337.000,8.235,379.92,2,-9.00,9,-9.00,0.05,3.89,9.66,23.3,243.11
AOML_Explorer,Ex0735N,239.161,27082007,3:52:16,39.282,-72.365,384.41,-9.00,1016.09,1013.60,23.70,24.03,34.508,1.140,101.199,32.210,1016.090,133.900,19.000,332.000,8.750,378.43,2,-9.00,9,-9.00,0.05,4.61,17.34,23.27,242.47
AOML_Explorer,Ex0735N,239.163,27082007,3:54:49,39.273,-72.352,384.27,-9.00,1016.15,1013.60,23.87,24.08,34.393,1.107,100.835,32.205,1016.149,134.200,19.000,331.000,8.235,376.27,2,-9.00,9,-9.00,0.05,4.82,11.64,23.36,242.61
AOML_Explorer,Ex0735N,239.165,27082007,3:57:22,39.263,-72.340,383.99,-9.00,1016.18,1013.60,23.94,24.32,34.540,1.147,101.012,32.196,1016.180,134.600,18.800,334.000,8.235,378.65,2,-9.00,9,-9.00,0.05,4.34,12.30,23.22,241.90
AOML_Explorer,Ex0735N,239.167,27082007,3:59:55,39.254,-72.328,384.36,-9.00,1016.21,1013.60,24.02,24.25,34.742,1.129,100.969,32.189,1016.214,134.000,19.000,330.000,7.721,376.75,2,-9.00,9,-9.00,0.05,5.01,5.31,23.29,240.85
AOML_Explorer,Ex0735N,239.185,27082007,4:26:46,39.152,-72.196,383.61,-9.00,1016.24,1013.80,24.43,24.39,34.679,1.176,101.279,32.189,1016.238,135.100,19.700,343.000,11.323,371.50,2,-9.00,9,-9.00,0.05,3.55,55.17,23.54,240.66
AOML_Explorer,Ex0735N,239.187,27082007,4:29:19,39.142,-72.183,384.04,-9.00,1016.21,1013.70,24.41,24.32,34.577,1.173,100.790,32.184,1016.212,135.000,19.700,336.000,11.323,371.14,2,-9.00,9,-9.00,0.04,4.78,46.42,23.65,240.77
AOML_Explorer,Ex0735N,239.189,27082007,4:31:52,39.133,-72.170,384.39,-9.00,1016.25,1013.70,24.32,24.37,34.561,1.128,100.886,32.178,1016.255,135.100,19.800,336.000,11.838,373.87,2,-9.00,9,-9.00,0.05,5.04,50.97,23.7,240.88
AOML_Explorer,Ex0735N,239.191,27082007,4:34:25,39.123,-72.158,384.36,-9.00,1016.09,1013.70,24.26,24.38,34.571,1.162,101.488,32.133,1016.087,134.600,19.900,334.000,11.838,374.71,2,-9.00,9,-9.00,0.05,5.35,48.31,23.7,240.89
AOML_Explorer,Ex0735N,239.192,27082007,4:36:58,39.113,-72.145,384.27,-9.00,1016.08,1013.60,24.29,24.45,34.579,1.158,101.310,32.116,1016.081,135.100,19.900,336.000,11.323,375.33,2,-9.00,9,-9.00,0.04,4.81,45.30,23.73,241.38
AOML_Explorer,Ex0735N,239.194,27082007,4:39:31,39.103,-72.132,384.35,-9.00,1016.13,1013.50,24.30,24.50,34.603,1.134,100.982,32.105,1016.125,135.100,19.900,335.000,10.809,375.99,2,-9.00,9,-9.00,0.04,4.81,38.23,23.78,241.36
AOML_Explorer,Ex0735N,239.196,27082007,4:42:04,39.093,-72.119,384.48,-9.00,1016.07,1013.50,24.35,24.49,34.587,1.129,101.136,32.095,1016.069,135.700,19.800,333.000,10.809,375.13,2,-9.00,9,-9.00,0.04,5.20,37.95,23.89,241.39
AOML_Explorer,Ex0735N,239.198,27082007,4:44:37,39.083,-72.107,384.27,-9.00,1016.14,1013.50,24.38,24.57,34.517,1.136,101.230,32.092,1016.143,134.900,19.600,329.000,11.323,375.69,2,-9.00,9,-9.00,0.05,6.12,39.85,23.95,241.48
AOML_Explorer,Ex0735N,239.199,27082007,4:47:10,39.073,-72.094,384.57,-9.00,1016.07,1013.60,24.40,24.56,34.515,1.128,101.123,32.091,1016.067,135.700,19.500,332.000,11.323,375.45,2,-9.00,9,-9.00,0.04,5.58,43.59,23.96,241.09
AOML_Explorer,Ex0735N,239.201,27082007,4:49:43,39.063,-72.082,384.99,-9.00,1016.03,1013.60,24.43,24.57,34.478,1.144,101.148,32.089,1016.028,136.100,19.600,335.000,11.323,375.49,2,-9.00,9,-9.00,0.05,5.16,45.88,24.05,240.94
AOML_Explorer,Ex0735N,239.203,27082007,4:52:16,39.053,-72.069,385.80,-9.00,1016.07,1013.50,24.44,24.57,34.525,1.162,101.229,32.088,1016.066,136.300,19.500,331.000,10.809,376.23,2,-9.00,9,-9.00,0.05,5.70,38.19,24.07,240.64
AOML_Explorer,Ex0735N,239.205,27082007,4:54:49,39.043,-72.057,386.20,-9.00,1016.05,1013.60,24.43,24.54,34.557,1.139,100.987,32.085,1016.052,136.300,19.500,331.000,11.323,376.25,2,-9.00,9,-9.00,0.05,5.95,42.32,24.14,240.82
AOML_Explorer,Ex0735N,239.207,27082007,4:57:22,39.033,-72.045,386.63,-9.00,1016.14,1013.70,24.48,24.38,34.601,1.144,101.289,32.083,1016.138,136.800,19.300,337.000,10.809,373.60,2,-9.00,9,-9.00,0.05,4.68,44.44,24.15,240.70
AOML_Explorer,Ex0735N,239.208,27082007,4:59:55,39.023,-72.033,387.23,-9.00,1016.19,1013.70,24.44,24.38,34.591,1.146,101.131,32.081,1016.191,136.600,19.300,337.000,10.294,374.74,2,-9.00,9,-9.00,0.05,4.47,38.59,24.16,240.45
AOML_Explorer,Ex0735N,239.227,27082007,5:26:46,38.918,-71.907,384.88,-9.00,1016.02,1013.20,24.31,24.51,34.404,1.110,100.464,32.130,1016.016,136.600,19.200,327.000,10.294,376.43,2,-9.00,9,-9.00,0.05,6.18,32.71,24.27,243.72
AOML_Explorer,Ex0735N,239.229,27082007,5:29:19,38.908,-71.895,385.42,-9.00,1015.94,1013.20,24.16,24.70,34.612,1.186,100.371,32.127,1015.938,136.500,19.100,330.000,10.809,382.30,2,-9.00,9,-9.00,0.05,5.87,39.40,24.27,242.92
AOML_Explorer,Ex0735N,239.230,27082007,5:31:52,38.899,-71.883,385.51,-9.00,1015.98,1013.40,24.35,24.87,34.592,1.168,100.240,32.122,1015.975,136.800,19.100,333.000,11.323,382.03,2,-9.00,9,-9.00,0.05,5.61,47.13,24.29,242.01
AOML_Explorer,Ex0735N,239.232,27082007,5:34:25,38.889,-71.871,385.48,-9.00,1015.91,1013.20,24.53,25.10,34.661,1.139,100.968,32.121,1015.913,136.400,18.900,331.000,11.323,382.54,2,-9.00,9,-9.00,0.05,5.95,45.31,24.41,240.90
AOML_Explorer,Ex0735N,239.234,27082007,5:36:58,38.879,-71.859,385.76,-9.00,1015.86,1013.30,24.71,25.17,34.791,1.144,100.141,32.116,1015.855,136.500,18.800,332.000,10.809,380.95,2,-9.00,9,-9.00,0.04,5.50,42.36,24.56,240.18
AOML_Explorer,Ex0735N,239.236,27082007,5:39:31,38.869,-71.847,386.35,-9.00,1015.96,1013.30,24.89,25.35,34.840,1.162,100.260,32.115,1015.962,136.600,18.700,332.000,10.294,381.48,2,-9.00,9,-9.00,0.05,5.28,38.34,24.63,239.64
AOML_Explorer,Ex0735N,239.238,27082007,5:42:04,38.860,-71.836,386.89,-9.00,1015.94,1013.40,24.98,25.31,34.909,1.154,100.826,32.114,1015.936,136.500,18.700,334.000,9.265,379.91,2,-9.00,9,-9.00,0.04,4.70,27.89,24.62,239.39
AOML_Explorer,Ex0735N,239.239,27082007,5:44:37,38.850,-71.824,386.70,-9.00,1015.90,1013.40,25.11,25.39,34.860,1.139,100.772,32.111,1015.900,136.800,18.700,336.000,9.779,378.83,2,-9.00,9,-9.00,0.04,4.45,35.43,24.72,239.80
AOML_Explorer,Ex0735N,239.241,27082007,5:47:10,38.840,-71.813,386.84,-9.00,1016.01,1013.50,25.14,25.38,34.812,1.193,100.783,32.107,1016.009,136.500,18.600,336.000,8.750,378.34,2,-9.00,9,-9.00,0.04,4.31,22.26,24.73,240.34
AOML_Explorer,Ex0735N,239.243,27082007,5:49:43,38.831,-71.801,387.09,-9.00,1016.04,1013.70,25.17,25.52,34.819,1.135,100.757,32.105,1016.036,136.400,18.600,355.000,8.235,380.30,2,-9.00,9,-9.00,0.05,1.78,353.72,24.87,239.63
AOML_Explorer,Ex0735N,239.245,27082007,5:52:16,38.821,-71.789,386.86,-9.00,1015.99,1013.80,25.19,25.66,34.840,1.138,100.206,32.104,1015.988,136.600,18.600,9.000,9.779,381.86,2,-9.00,9,-9.00,0.04,1.16,218.53,25.02,239.01
AOML_Explorer,Ex0735N,239.246,27082007,5:54:49,38.812,-71.778,386.94,-9.00,1016.03,1013.90,25.30,25.72,34.872,1.165,100.425,32.103,1016.026,135.900,18.600,7.000,10.294,381.25,2,-9.00,9,-9.00,0.04,1.13,187.44,25.04,238.47
AOML_Explorer,Ex0735N,239.248,27082007,5:57:22,38.802,-71.766,387.39,-9.00,1016.02,1013.80,25.41,25.65,34.906,1.126,100.599,32.101,1016.022,135.600,18.700,7.000,9.779,378.74,2,-9.00,9,-9.00,0.05,0.90,217.95,25.05,238.30
AOML_Explorer,Ex0735N,239.250,27082007,5:59:55,38.793,-71.754,388.42,-9.00,1016.06,1013.90,25.49,25.60,34.880,1.126,100.569,32.102,1016.065,135.500,18.700,3.000,9.779,377.73,2,-9.00,9,-9.00,0.05,0.26,192.66,25.1,238.77
AOML_Explorer,Ex0735N,239.269,27082007,6:26:46,38.694,-71.628,389.68,-9.00,1016.17,1014.20,25.53,25.47,34.795,1.131,100.911,32.141,1016.166,134.000,18.700,15.000,11.323,376.32,2,-9.00,9,-9.00,0.05,3.15,199.44,25.09,239.18
AOML_Explorer,Ex0735N,239.270,27082007,6:29:19,38.685,-71.616,390.65,-9.00,1016.19,1014.10,25.56,25.60,34.655,1.136,101.224,32.139,1016.193,133.800,18.700,8.000,11.323,378.72,2,-9.00,9,-9.00,0.05,2.22,178.35,25.08,239.02
AOML_Explorer,Ex0735N,239.272,27082007,6:31:52,38.675,-71.604,391.63,-9.00,1016.18,1014.10,25.40,25.71,34.614,1.181,100.962,32.136,1016.177,133.400,18.800,12.000,10.809,383.94,2,-9.00,9,-9.00,0.04,2.46,201.84,25.08,238.89
AOML_Explorer,Ex0735N,239.274,27082007,6:34:25,38.666,-71.592,392.30,-9.00,1016.22,1014.20,25.41,25.77,34.611,1.137,100.869,32.133,1016.218,133.700,18.800,16.000,10.809,385.46,2,-9.00,9,-9.00,0.05,3.06,210.57,25.12,238.79
AOML_Explorer,Ex0735N,239.276,27082007,6:36:58,38.657,-71.580,392.93,-9.00,1016.16,1014.20,25.49,25.86,34.609,1.136,100.959,32.127,1016.162,133.900,18.900,16.000,10.809,386.09,2,-9.00,9,-9.00,0.04,3.07,211.32,25.13,238.47
AOML_Explorer,Ex0735N,239.277,27082007,6:39:31,38.648,-71.567,393.80,-9.00,1016.15,1014.10,25.56,25.96,34.632,1.172,100.825,32.125,1016.145,133.800,18.800,12.000,10.809,387.50,2,-9.00,9,-9.00,0.05,2.44,202.26,25.13,237.99
AOML_Explorer,Ex0735N,239.279,27082007,6:42:04,38.638,-71.555,394.49,-9.00,1016.13,1014.10,25.62,26.32,34.699,1.117,101.386,32.121,1016.131,133.200,18.700,15.000,10.809,392.80,2,-9.00,9,-9.00,0.05,2.98,207.77,25.12,236.31
AOML_Explorer,Ex0735N,239.281,27082007,6:44:37,38.629,-71.543,395.38,-9.00,1016.08,1014.10,25.72,26.81,34.692,1.111,101.189,32.118,1016.076,133.700,18.600,9.000,10.809,399.76,2,-9.00,9,-9.00,0.05,2.09,192.09,25.18,233.59
AOML_Explorer,Ex0735N,239.283,27082007,6:47:10,38.620,-71.531,396.04,-9.00,1016.12,1014.10,26.03,26.94,34.645,1.126,100.934,32.118,1016.124,134.300,18.600,13.000,11.323,397.39,2,-9.00,9,-9.00,0.04,3.06,197.35,25.38,233.73
AOML_Explorer,Ex0735N,239.285,27082007,6:49:43,38.611,-71.519,394.49,-9.00,1016.09,1014.10,26.40,26.99,34.598,1.147,100.818,32.117,1016.085,136.500,18.600,17.000,11.323,390.44,2,-9.00,9,-9.00,0.05,3.58,206.25,25.41,233.30
AOML_Explorer,Ex0735N,239.286,27082007,6:52:16,38.601,-71.508,393.90,-9.00,1016.04,1014.10,26.55,27.02,34.600,1.126,101.324,32.118,1016.041,136.400,18.500,12.000,11.323,387.83,2,-9.00,9,-9.00,0.05,2.89,194.03,25.48,233.13
AOML_Explorer,Ex0735N,239.288,27082007,6:54:49,38.591,-71.496,394.25,-9.00,1016.13,1014.10,26.62,27.06,34.605,1.151,100.897,32.115,1016.131,136.700,18.400,15.000,11.838,387.60,2,-9.00,9,-9.00,0.05,3.71,195.02,25.44,233.03
AOML_Explorer,Ex0735N,239.290,27082007,6:57:22,38.582,-71.485,395.03,-9.00,1016.10,1014.20,26.67,27.07,34.610,1.125,101.090,32.115,1016.100,136.600,18.400,16.000,11.838,387.73,2,-9.00,9,-9.00,0.05,3.82,197.49,25.46,233.07
AOML_Explorer,Ex0735N,239.292,27082007,6:59:55,38.572,-71.474,395.62,-9.00,1016.14,1014.10,26.71,27.08,34.608,1.165,100.936,32.118,1016.137,136.800,18.400,17.000,11.838,387.94,2,-9.00,9,-9.00,0.05,3.96,199.40,25.43,233.09
AOML_Explorer,Ex0735N,239.307,27082007,7:21:40,38.490,-71.377,394.96,-9.00,1016.14,1014.20,26.91,27.22,34.977,1.145,101.153,32.168,1016.141,138.200,18.700,14.000,11.323,386.08,2,-9.00,9,-9.00,0.05,2.96,199.42,25.58,232.64
AOML_Explorer,Ex0735N,239.308,27082007,7:24:13,38.480,-71.366,395.37,-9.00,1016.14,1014.10,26.90,27.14,34.914,1.113,100.966,32.170,1016.140,138.200,18.700,15.000,10.294,385.47,2,-9.00,9,-9.00,0.05,2.55,218.48,25.62,232.28
AOML_Explorer,Ex0735N,239.310,27082007,7:26:46,38.470,-71.355,394.91,-9.00,1016.16,1014.10,26.89,27.08,34.848,1.165,100.844,32.169,1016.156,138.000,18.700,15.000,10.809,384.24,2,-9.00,9,-9.00,0.04,2.78,208.78,25.61,232.15
AOML_Explorer,Ex0735N,239.312,27082007,7:29:19,38.460,-71.344,394.68,-9.00,1016.19,1014.10,26.83,26.97,34.874,1.127,100.691,32.171,1016.187,138.600,18.700,18.000,9.779,383.41,2,-9.00,9,-9.00,0.04,2.81,232.17,25.64,232.20
AOML_Explorer,Ex0735N,239.314,27082007,7:31:52,38.451,-71.333,394.31,-9.00,1016.12,1014.10,26.77,26.83,34.901,1.153,100.917,32.167,1016.117,138.700,18.700,9.000,9.265,381.85,2,-9.00,9,-9.00,0.05,1.31,245.19,25.61,232.20
AOML_Explorer,Ex0735N,239.316,27082007,7:34:25,38.441,-71.322,393.99,-9.00,1016.26,1014.10,26.69,26.62,34.949,1.125,100.682,32.165,1016.262,138.900,18.600,13.000,9.779,379.53,2,-9.00,9,-9.00,0.04,1.92,226.69,25.63,232.51
AOML_Explorer,Ex0735N,239.317,27082007,7:36:58,38.431,-71.311,393.52,-9.00,1016.23,1014.10,26.57,26.37,35.008,1.122,100.750,32.167,1016.228,138.900,18.600,8.000,9.265,377.17,2,-9.00,9,-9.00,0.04,1.09,244.58,25.66,233.11
AOML_Explorer,Ex0735N,239.319,27082007,7:39:31,38.421,-71.300,393.16,-9.00,1016.28,1014.10,26.39,26.24,35.009,1.144,100.985,32.166,1016.280,139.000,18.600,11.000,9.779,377.71,2,-9.00,9,-9.00,0.04,1.61,223.61,25.64,233.20
AOML_Explorer,Ex0735N,239.321,27082007,7:42:04,38.411,-71.289,392.73,-9.00,1016.23,1014.10,26.20,26.03,35.067,1.162,100.787,32.167,1016.234,137.300,18.500,14.000,9.265,377.16,2,-9.00,9,-9.00,0.04,1.98,238.82,25.7,233.59
AOML_Explorer,Ex0735N,239.323,27082007,7:44:37,38.402,-71.277,392.37,-9.00,1016.31,1014.30,26.06,25.76,35.142,1.064,101.134,32.166,1016.308,137.000,18.500,14.000,9.779,374.97,2,-9.00,9,-9.00,0.04,2.13,224.41,25.77,234.14
AOML_Explorer,Ex0735N,239.324,27082007,7:47:10,38.392,-71.266,392.04,-9.00,1016.45,1014.20,25.90,25.61,35.163,0.882,101.076,32.167,1016.454,136.800,18.400,13.000,9.779,375.10,2,-9.00,9,-9.00,0.04,1.93,221.30,25.76,234.58
AOML_Explorer,Ex0735N,239.326,27082007,7:49:43,38.383,-71.254,391.69,-9.00,1016.36,1014.20,25.72,25.33,35.225,0.841,100.806,32.168,1016.356,136.600,18.400,15.000,9.265,373.23,2,-9.00,9,-9.00,0.04,2.19,236.46,25.73,235.55